FW7733 Weather Reports


time (UTC)temp
F
wind
direction
speed
knots
gust
knots
rain 1hr
in
rain 24hr
in
rain mn
in
humidity
%
barometer
mb
20260503004530 53 184 0.9 1.7 0.00 0.00 0.00 86 1016.9
20260503003029 53 184 0.0 1.7 0.00 0.00 0.00 87 1016.9
20260503001529 53 0 0.0 2.6 0.00 0.00 0.00 86 1017.1
20260503000033 54 184 1.7 3.5 0.00 0.00 0.00 84 1017.1
20260502234530 54 193 0.0 1.7 0.00 0.00 0.00 85 1017.2
20260502233027 55 193 0.0 2.6 0.00 0.00 0.00 84 1017.2
20260502231531 55 189 0.9 1.7 0.00 0.00 0.00 83 1017.2
20260502230033 56 210 0.9 1.7 0.00 0.00 0.00 80 1017.3
20260502224529 57 0 0.0 0.9 0.00 0.00 0.00 80 1017.2
20260502223028 58 0 0.0 0.0 0.00 0.00 0.00 79 1017.2
20260502221529 58 0 0.0 1.7 0.00 0.00 0.00 78 1017.1
20260502220040 58 189 0.9 3.5 0.00 0.00 0.00 77 1016.9
20260502214531 59 0 0.0 1.7 0.00 0.00 0.00 77 1016.8
20260502213029 60 235 0.9 3.5 0.00 0.00 0.00 75 1016.8
20260502211542 60 199 1.7 3.5 0.00 0.00 0.00 74 1016.8
20260502210030 61 184 1.7 4.3 0.00 0.00 0.00 72 1016.7
20260502204530 61 180 1.7 3.5 0.00 0.00 0.00 73 1016.7
20260502203027 62 281 1.7 4.3 0.00 0.00 0.00 72 1016.9
20260502201527 63 211 1.7 2.6 0.00 0.00 0.00 70 1016.9
20260502200031 64 0 0.0 3.5 0.00 0.00 0.00 67 1016.8
20260502194532 65 185 1.7 3.5 0.00 0.00 0.00 67 1016.8
20260502193032 65 185 1.7 3.5 0.00 0.00 0.00 68 1016.7
20260502191530 65 215 0.9 1.7 0.00 0.00 0.00 68 1016.5
20260502190031 66 215 0.9 4.3 0.00 0.00 0.00 67 1016.6
20260502184533 66 200 1.7 3.5 0.00 0.00 0.00 69 1016.5
20260502183031 67 0 0.0 0.9 0.00 0.00 0.00 68 1016.4
20260502181529 68 0 0.0 1.7 0.00 0.00 0.00 66 1016.3
20260502163028 78 321 0.9 7.8 0.00 0.00 0.00 42 1016.4
20260502161529 79 9 0.9 6.1 0.00 0.00 0.00 42 1016.6
20260502151530 79 11 1.7 7.0 0.00 0.00 0.00 44 1017.3
20260502123029 75 144 4.3 8.7 0.00 0.00 0.00 49 1019.3
20260502121530 74 36 3.5 7.8 0.00 0.00 0.00 53 1019.5
20260502114530 75 32 0.9 10.4 0.00 0.00 0.00 51 1020.0
20260502113030 73 29 0.9 6.1 0.00 0.00 0.00 54 1020.2
20260502111527 73 0 1.7 7.0 0.00 0.00 0.00 51 1020.5
20260502110029 73 108 1.7 6.1 0.00 0.00 0.00 51 1020.8
20260502104548 72 0 0.9 6.1 0.00 0.00 0.00 53 1021.0
20260502103035 70 139 2.6 7.0 0.00 0.00 0.00 55 1021.1
20260502101528 70 120 1.7 7.0 0.00 0.00 0.00 55 1021.4
20260502071529 58 209 0.0 1.7 0.00 0.00 0.00 71 1022.8
20260502070028 57 0 0.9 2.6 0.00 0.00 0.00 73 1022.9
20260502064530 55 209 0.0 1.7 0.00 0.00 0.00 78 1023.1
20260502063028 53 209 0.0 1.7 0.00 0.00 0.00 80 1022.9
20260502061530 51 0 0.0 0.9 0.00 0.00 0.00 87 1023.0
20260502060027 49 0 0.0 0.9 0.00 0.00 0.00 90 1022.9
20260502054529 47 0 0.0 0.9 0.00 0.00 0.00 91 1023.1
20260502053029 46 0 0.0 1.7 0.00 0.00 0.00 92 1023.0
20260502051528 46 0 0.0 2.6 0.00 0.00 0.00 92 1023.2
20260502050030 45 0 0.0 0.0 0.00 0.00 0.00 93 1023.0
20260502044527 44 0 0.0 0.0 0.00 0.00 0.00 93 1022.9
20260502043029 44 248 0.9 3.5 0.00 0.00 0.00 92 1022.8
20260502041535 44 181 0.0 1.7 0.00 0.00 0.00 92 1022.8
20260502040029 44 0 0.0 0.9 0.00 0.00 0.00 92 1022.8
20260502034532 44 0 0.0 1.7 0.00 0.00 0.00 91 1022.7
20260502033031 44 0 0.0 1.7 0.00 0.00 0.00 91 1022.7
20260502031530 45 0 0.0 0.9 0.00 0.00 0.00 90 1022.7
20260502030030 45 180 0.9 2.6 0.00 0.00 0.00 90 1022.8
20260502024535 45 0 0.0 4.3 0.00 0.00 0.00 90 1022.8
20260502023030 45 0 0.0 1.7 0.00 0.00 0.00 90 1022.7
20260502021528 45 196 0.9 2.6 0.00 0.00 0.00 89 1022.7
20260502020028 45 202 0.0 1.7 0.00 0.00 0.00 89 1022.7
20260502014531 46 202 0.0 0.9 0.00 0.00 0.00 88 1022.7
20260502013029 46 0 0.0 0.9 0.00 0.00 0.00 87 1022.7
20260502011549 47 0 0.0 1.7 0.00 0.00 0.00 86 1022.8
20260502010030 47 0 0.0 1.7 0.00 0.00 0.00 86 1022.7